Weather History for Fort Myers, FL

Change the Weather History Date:

Tuesday, April 2, 2013

  Actual Average Record
Temperature  
Mean Temperature 76 °F 72 °F  
Max Temperature 85 °F 83 °F 91 °F (1974)
Min Temperature 66 °F 61 °F 45 °F (1987)
Degree Days  
Heating Degree Days 0 0  
Month to date heating degree days 0 0  
Since 1 July heating degree days 201 284  
Cooling Degree Days 11 7  
Month to date cooling degree days 19 14  
Year to date cooling degree days 401 375  
Growing Degree Days 25 (Base 50)    
Moisture  
Dew Point 64 °F    
Average Humidity 79    
Maximum Humidity 100    
Minimum Humidity 44    
Precipitation  
Precipitation 0.00 in 0.09 in 1.53 in (2008)
Month to date precipitation 0.00 0.18  
Year to date precipitation 3.26 7.15  
Sea Level Pressure  
Sea Level Pressure 30.04 in    
Wind  
Wind Speed 5 mph (NW)    
Max Wind Speed 16 mph    
Max Gust Speed 22 mph    
Visibility 7 miles    
Events Fog    
T = Trace of Precipitation, MM = Missing Value Source: NWS Daily Summary

Daily Weather History Graph

Daily Weather History Graph

Search for Another Location

Airport:

Trip Planner

Search our weather history database for the weather conditions in past years. The results will help you decide how hot, cold, wet, or windy it might be!

Date:

Astronomy

Apr. 02, 2013 Rise Set
Actual Time 7:16 AM EDT 7:45 PM EDT
Civil Twilight 6:53 AM EDT 8:08 PM EDT
Nautical Twilight 6:26 AM EDT 8:35 PM EDT
Astronomical Twilight 5:58 AM EDT 9:03 PM EDT
Moon 1:26 AM EDT (4/2) 12:28 PM EDT (4/2)
Length of Visible Light 13h 14m
Length of Day
12h 28m
Waning Gibbous, 56% of the Moon is Illuminated
Apr 2
Waning Gibbous
Apr 3
Last Quarter
Apr 10
New
Apr 18
First Quarter
Apr 25
Full

Hourly Weather History & Observations

Time (EDT) Temp. Heat Index Dew Point Humidity Pressure Visibility Wind Dir Wind Speed Gust Speed Precip Events Conditions
12:53 AM 70.0 °F - 66.9 °F 90% 30.04 in 9.0 mi WSW 3.5 mph - N/A   Clear
1:32 AM 69.8 °F - 66.2 °F 88% 30.03 in 7.0 mi Calm Calm - N/A   Partly Cloudy
1:53 AM 69.1 °F - 66.9 °F 93% 30.03 in 6.0 mi Calm Calm - N/A   Partly Cloudy
2:53 AM 68.0 °F - 66.0 °F 93% 30.03 in 4.0 mi Calm Calm - N/A   Clear
3:02 AM 68.0 °F - 66.2 °F 94% 30.02 in 2.5 mi Calm Calm - N/A   Clear
3:11 AM 66.2 °F - 64.4 °F 94% 30.02 in 3.0 mi Calm Calm - N/A   Clear
3:16 AM 66.2 °F - 66.2 °F 100% 30.02 in 1.5 mi Calm Calm - N/A   Clear
3:21 AM 66.2 °F - 66.2 °F 100% 30.02 in 0.5 mi Calm Calm - N/A Fog Fog
3:38 AM 66.2 °F - 64.4 °F 94% 30.02 in 2.5 mi Calm Calm - N/A   Mostly Cloudy
3:45 AM 66.2 °F - 64.4 °F 94% 30.02 in 4.0 mi Calm Calm - N/A   Mostly Cloudy
3:53 AM 68.0 °F - 66.0 °F 93% 30.02 in 5.0 mi Calm Calm - N/A   Overcast
4:13 AM 69.8 °F - 66.2 °F 88% 30.02 in 1.8 mi NNW 3.5 mph - N/A   Overcast
4:21 AM 69.8 °F - 68.0 °F 94% 30.01 in 0.8 mi Calm Calm - N/A   Mist
4:53 AM 68.0 °F - 66.9 °F 96% 30.02 in 0.2 mi NNW 3.5 mph - N/A Fog Fog
5:53 AM 66.9 °F - 66.0 °F 97% 30.03 in 1.0 mi Calm Calm - N/A   Mist
6:02 AM 66.2 °F - 66.2 °F 100% 30.03 in 3.0 mi WNW 3.5 mph - N/A   Overcast
6:29 AM 66.2 °F - 66.2 °F 100% 30.03 in 8.0 mi North 4.6 mph - N/A   Overcast
6:53 AM 66.9 °F - 66.0 °F 97% 30.05 in 9.0 mi NW 3.5 mph - N/A   Overcast
7:53 AM 68.0 °F - 66.0 °F 93% 30.08 in 7.0 mi NNW 4.6 mph - N/A   Overcast
8:53 AM 68.0 °F - 64.9 °F 90% 30.10 in 7.0 mi NNW 4.6 mph - N/A   Mostly Cloudy
9:39 AM 71.6 °F - 64.4 °F 78% 30.09 in 10.0 mi NNW 5.8 mph - N/A   Partly Cloudy
9:53 AM 72.0 °F - 64.9 °F 78% 30.11 in 10.0 mi NNW 6.9 mph - N/A   Clear
10:53 AM 75.9 °F - 64.0 °F 67% 30.10 in 10.0 mi NNW 8.1 mph - N/A   Clear
11:53 AM 79.0 °F - 62.1 °F 56% 30.10 in 10.0 mi Variable 3.5 mph - N/A   Clear
12:53 PM 82.0 °F 83.0 °F 62.1 °F 51% 30.09 in 10.0 mi NNW 5.8 mph - N/A   Clear
1:53 PM 82.9 °F 83.7 °F 62.1 °F 49% 30.06 in 10.0 mi NNW 8.1 mph - N/A   Clear
2:53 PM 84.0 °F 84.5 °F 62.1 °F 47% 30.04 in 10.0 mi West 11.5 mph - N/A   Clear
3:53 PM 84.0 °F 84.0 °F 60.1 °F 44% 30.03 in 10.0 mi WNW 10.4 mph - N/A   Clear
4:53 PM 82.9 °F 83.7 °F 62.1 °F 49% 30.02 in 10.0 mi West 11.5 mph - N/A   Clear
5:53 PM 82.0 °F 82.4 °F 60.1 °F 47% 30.01 in 10.0 mi West 10.4 mph - N/A   Clear
6:53 PM 80.1 °F 81.1 °F 61.0 °F 52% 30.02 in 10.0 mi West 9.2 mph - N/A   Clear
7:53 PM 75.0 °F - 61.0 °F 62% 30.03 in 10.0 mi NW 6.9 mph - N/A   Clear
8:53 PM 73.0 °F - 62.1 °F 68% 30.05 in 10.0 mi WNW 5.8 mph - N/A   Clear
9:53 PM 71.1 °F - 63.0 °F 75% 30.07 in 10.0 mi NNW 4.6 mph - N/A   Clear
10:53 PM 71.1 °F - 62.1 °F 73% 30.08 in 10.0 mi North 4.6 mph - N/A   Partly Cloudy
11:53 PM 69.1 °F - 62.1 °F 78% 30.08 in 10.0 mi NE 4.6 mph - N/A   Clear